Aswan, Egypt

9:16 PM EET on September 19, 2017 (GMT +0200)
Aswan

Weather History for HESN - July, 2013

Change the Weather History Date:

Friday, July 12, 2013

  Actual Average Record
Temperature  
Mean Temperature 94 °F -  
Max Temperature 107 °F 104 °F 114 °F (2014)
Min Temperature 80 °F 81 °F 75 °F (2003)
Cooling Degree Days 28    
Growing Degree Days 44 (Base 50)    
Moisture  
Dew Point 42 °F    
Average Humidity 17    
Maximum Humidity 37    
Minimum Humidity 4    
Precipitation  
Precipitation 0.00 in 0.00 in - ()
Sea Level Pressure  
Sea Level Pressure 29.68 in    
Wind  
Wind Speed 8 mph ()    
Max Wind Speed 16 mph    
Max Gust Speed -    
Visibility 6.0 miles    
Events      
Averages and records for this station are not official NWS values.
T = Trace of Precipitation, MM = Missing Value Source: Averaged Metar Reports

Daily Weather History Graph

Daily Weather History Graph

Search for Another Location

Airport or City:

Trip Planner

Search our weather history database for the weather conditions in past years. The results will help you decide how hot, cold, wet, or windy it might be!

Date:

Astronomy

Jul. 12, 2013 Rise Set
Actual Time 5:09 AM EET 6:39 PM EET
Civil Twilight 4:44 AM EET 7:04 PM EET
Nautical Twilight 4:13 AM EET 7:34 PM EET
Astronomical Twilight 3:42 AM EET 8:06 PM EET
Moon 8:36 AM EET (7/12) 9:13 PM EET (7/12)
Length of Visible Light 14h 20m
Length of Day
13h 30m
Waxing Crescent, 15% of the Moon is Illuminated
Jul 12
Waxing Crescent
Jul 16
First Quarter
Jul 22
Full
Jul 29
Last Quarter
Aug 6
New

Hourly Weather History & Observations

Time (EET) Temp. Heat Index Dew Point Humidity Pressure Visibility Wind Dir Wind Speed Gust Speed Precip Events Conditions
12:00 AM 87.8 °F - 46.4 °F 24% 29.68 in - NW 10.4 mph - N/A   Clear
1:00 AM 86.0 °F - 46.4 °F 25% 29.68 in - NW 6.9 mph - N/A   Clear
2:00 AM 84 °F - 49 °F 20% 29.65 in 6 mi NW 5.8 mph - -  
2:00 AM 84.2 °F - 50.0 °F 30% 29.68 in - NW 5.8 mph - N/A   Clear
3:00 AM 84.2 °F - 50.0 °F 30% 29.68 in - NW 6.9 mph - N/A   Clear
4:00 AM 82.4 °F - 50.0 °F 32% 29.68 in - NNW 5.8 mph - N/A   Clear
5:00 AM 81 °F - 50 °F 23% 29.67 in 6 mi North 5.8 mph - -  
5:00 AM 80.6 °F - 50.0 °F 34% 29.68 in - North 5.8 mph - N/A   Clear
6:00 AM 80.6 °F - 51.8 °F 37% 29.71 in - North 5.8 mph - N/A   Clear
7:00 AM 84.2 °F 82.8 °F 53.6 °F 35% 29.71 in - NNW 6.9 mph - N/A   Clear
8:00 AM 88 °F - 53 °F 21% 29.70 in 6 mi NNW 13.8 mph - -   Clear
8:00 AM 87.8 °F 85.7 °F 53.6 °F 31% 29.71 in - NNW 13.8 mph - N/A   Clear
9:00 AM 89.6 °F - 48.2 °F 24% 29.74 in - North 13.8 mph - N/A   Clear
10:00 AM 93.2 °F - 42.8 °F 17% 29.71 in - NNW 11.5 mph - N/A   Clear
11:00 AM 97 °F - 38 °F 6% 29.68 in 6 mi North 11.5 mph - -   Clear
11:00 AM 96.8 °F - 37.4 °F 13% 29.71 in - North 11.5 mph - N/A   Clear
12:00 PM 100.4 °F - 35.6 °F 11% 29.71 in - NNW 9.2 mph - N/A   Clear
1:00 PM 102.2 °F - 33.8 °F 9% 29.68 in - NNW 8.1 mph - N/A   Clear
2:00 PM 104 °F - 34 °F 4% 29.62 in 6 mi NW 15.7 mph - -   Clear
2:00 PM 104.0 °F - 33.8 °F 9% 29.68 in - NW 8.1 mph - N/A   Clear
3:00 PM 105.8 °F - 28.4 °F 7% 29.65 in - NW 9.2 mph - N/A   Clear
4:00 PM 107.6 °F - 30.2 °F 7% 29.65 in - NNW 9.2 mph - N/A   Clear
5:00 PM 105 °F - 29 °F 4% 29.60 in 6 mi NNW 9.2 mph - -   Clear
5:00 PM 105.8 °F - 28.4 °F 7% 29.65 in - NNW 9.2 mph - N/A   Clear
6:00 PM 104.0 °F - 30.2 °F 8% 29.65 in - NNW 8.1 mph - N/A   Clear
7:00 PM 102.2 °F - 33.8 °F 9% 29.65 in - NNW 9.2 mph - N/A   Clear
8:00 PM 97 °F - 38 °F 6% 29.65 in 6 mi NNW 6.9 mph - -  
8:00 PM 96.8 °F - 37.4 °F 13% 29.68 in - NNW 6.9 mph - N/A   Clear
9:00 PM 95.0 °F - 37.4 °F 13% 29.71 in - NW 8.1 mph - N/A   Clear
10:00 PM 93.2 °F - 42.8 °F 17% 29.71 in - WNW 11.5 mph - N/A   Clear
11:00 PM 90 °F - 45 °F 12% 29.68 in 6 mi WNW 11.5 mph - -  
11:00 PM 89.6 °F - 44.6 °F 21% 29.71 in - WNW 11.5 mph - N/A   Clear